ETD113 EGLL-VABB

Flight info

Callsign ETD113
Flight time N/A
Altitude 35000
Route DET L6 DVR UL9 KONAN UL607 FERDI DCT REMBA DCT MATUG DCT GUBAX DCT BARSU DCT MOOCE DCT RUDNO DCT DEXIT DCT BEGLA DCT BALUX DCT IRLOX DCT OPT/N0480F370 DCT LUGEB DCT UDROS DCT CRM UM11 REBLO P130 MAMED B449 DOLOS B475 RUBAD/N0476F390 B475 NINOP A909 LEMOD N644 REGET/N0484F380 G325 ZB/N0481F390 G202 RK P628 VIKIT Z8 AAE/N0481F400 R458 BVR/N0483F390 R458 BOFIN POKON2A
Aircraft A346/H-SDE2E3FGHIJ3J4J5M1RWXY/LB1D1

Departure

Time N/A
Airport London Heathrow Airport (EGLL)

Arrival

Time 2026-05-04 04:43
Airport Chhatrapati Shivaji Maharaj International Airport (VABB)
Time Latitude Longitude Altitude Speed Heading
2026-05-03 20:15 51.07571 2.77242 34921 ft 492 kts 111°
2026-05-03 20:15 51.05629 2.87686 34922 ft 492 kts 111°
2026-05-03 20:16 51.03692 2.98074 34919 ft 492 kts 111°
2026-05-03 20:16 51.01736 3.08555 34914 ft 492 kts 111°
2026-05-03 20:17 50.99777 3.19017 34910 ft 493 kts 111°
2026-05-03 20:17 50.97812 3.29451 34900 ft 493 kts 111°
2026-05-03 20:18 50.95836 3.39884 34903 ft 493 kts 111°
2026-05-03 20:18 50.93845 3.50328 34905 ft 493 kts 111°
2026-05-03 20:19 50.91844 3.60762 34905 ft 494 kts 112°
2026-05-03 20:19 50.89856 3.71191 34919 ft 494 kts 111°
2026-05-03 20:20 50.87873 3.81633 34915 ft 495 kts 111°
2026-05-03 20:20 50.85872 3.92081 34923 ft 495 kts 112°
2026-05-03 20:21 50.83843 4.02597 34927 ft 496 kts 112°
2026-05-03 20:21 50.81823 4.13003 34935 ft 496 kts 112°
2026-05-03 20:22 50.79781 4.23464 34942 ft 497 kts 112°
2026-05-03 20:22 50.77730 4.33917 34944 ft 497 kts 112°
2026-05-03 20:23 50.75668 4.44365 34946 ft 497 kts 112°
2026-05-03 20:23 50.73598 4.54798 34948 ft 497 kts 112°
2026-05-03 20:24 50.71516 4.65230 34945 ft 497 kts 112°
2026-05-03 20:24 50.69422 4.75657 34948 ft 497 kts 112°
2026-05-03 20:25 50.67318 4.86073 34946 ft 497 kts 112°
2026-05-03 20:25 50.65387 4.96594 34950 ft 500 kts 109°
2026-05-03 20:26 50.63644 5.07379 34949 ft 500 kts 109°
2026-05-03 20:26 50.61914 5.18014 34949 ft 500 kts 109°
2026-05-03 20:27 50.60165 5.28658 34954 ft 500 kts 109°
2026-05-03 20:27 50.58409 5.39253 34951 ft 499 kts 109°
2026-05-03 20:28 50.56615 5.50011 34951 ft 499 kts 109°
2026-05-03 20:28 50.54840 5.60586 34952 ft 499 kts 109°
2026-05-03 20:29 50.53056 5.71149 34952 ft 499 kts 109°
2026-05-03 20:29 50.51551 5.80006 34952 ft 498 kts 109°
2026-05-03 20:30 50.49748 5.90564 34950 ft 498 kts 109°
2026-05-03 20:30 50.47938 6.01092 34952 ft 497 kts 109°
2026-05-03 20:31 50.46120 6.11594 34948 ft 496 kts 109°
2026-05-03 20:31 50.44299 6.22044 34947 ft 495 kts 109°
2026-05-03 20:32 50.42496 6.32485 34947 ft 496 kts 108°
2026-05-03 20:32 50.41196 6.43148 34946 ft 499 kts 101°
2026-05-03 20:33 50.40368 6.53966 34947 ft 499 kts 100°
2026-05-03 20:33 50.39554 6.64794 34948 ft 499 kts 100°
2026-05-03 20:34 50.38725 6.75526 34954 ft 498 kts 101°
2026-05-03 20:34 50.37872 6.86339 34970 ft 497 kts 101°
2026-05-03 20:35 50.37011 6.97109 34972 ft 496 kts 101°
2026-05-03 20:35 50.36140 7.07873 34974 ft 496 kts 101°
2026-05-03 20:36 50.35263 7.18587 34973 ft 495 kts 101°
2026-05-03 20:36 50.34374 7.29308 34973 ft 495 kts 101°
2026-05-03 20:37 50.33474 7.40036 34975 ft 495 kts 101°
2026-05-03 20:37 50.32568 7.50720 34974 ft 494 kts 101°
2026-05-03 20:38 50.31650 7.61412 34977 ft 495 kts 101°
2026-05-03 20:38 50.30723 7.72086 34973 ft 494 kts 102°
2026-05-03 20:39 50.29785 7.82741 34973 ft 494 kts 102°
2026-05-03 20:39 50.28744 7.93346 34972 ft 491 kts 105°
2026-05-03 20:40 50.27326 8.03817 34976 ft 489 kts 106°
2026-05-03 20:40 50.25865 8.14302 34971 ft 488 kts 106°
2026-05-03 20:41 50.24408 8.24701 34979 ft 488 kts 106°
2026-05-03 20:41 50.22943 8.35105 34987 ft 487 kts 106°
2026-05-03 20:42 50.21472 8.45486 34990 ft 487 kts 107°
2026-05-03 20:42 50.20008 8.55752 34995 ft 486 kts 107°
2026-05-03 20:43 50.18526 8.66073 34997 ft 486 kts 107°
2026-05-03 20:43 50.17035 8.76385 34992 ft 485 kts 107°
2026-05-03 20:44 50.15505 8.86898 34995 ft 485 kts 107°
2026-05-03 20:44 50.13998 8.97181 34989 ft 485 kts 107°
2026-05-03 20:45 50.12474 9.07515 34980 ft 485 kts 107°
2026-05-03 20:45 50.10943 9.17824 34977 ft 485 kts 107°
2026-05-03 20:46 50.09410 9.28080 34974 ft 485 kts 107°
2026-05-03 20:46 50.07869 9.38316 34972 ft 485 kts 107°
2026-05-03 20:47 50.06328 9.48494 34975 ft 485 kts 107°
2026-05-03 20:47 50.04769 9.58717 34978 ft 485 kts 107°
2026-05-03 20:48 50.03200 9.68950 34976 ft 485 kts 107°
2026-05-03 20:48 50.01624 9.79151 34969 ft 485 kts 107°
2026-05-03 20:49 50.00035 9.89374 34974 ft 485 kts 107°
2026-05-03 20:49 49.98436 9.99596 34969 ft 485 kts 107°
2026-05-03 20:50 49.96822 10.09839 34969 ft 485 kts 107°
2026-05-03 20:50 49.95209 10.20009 34964 ft 485 kts 107°
2026-05-03 20:51 49.93584 10.30186 34963 ft 485 kts 108°
2026-05-03 20:51 49.91612 10.40162 34964 ft 482 kts 114°
2026-05-03 20:52 49.88977 10.49717 34964 ft 479 kts 118°
2026-05-03 20:52 49.86155 10.59028 34966 ft 479 kts 118°
2026-05-03 20:53 49.83316 10.68378 34963 ft 479 kts 118°
2026-05-03 20:53 49.80468 10.77740 34963 ft 480 kts 118°
2026-05-03 20:54 49.77601 10.87134 34967 ft 480 kts 118°
2026-05-03 20:54 49.73289 11.01205 34968 ft 481 kts 118°
2026-05-03 20:55 49.70410 11.10552 34971 ft 481 kts 118°
2026-05-03 20:55 49.67522 11.19893 34976 ft 481 kts 118°
2026-05-03 20:56 49.64640 11.29174 34976 ft 482 kts 118°
2026-05-03 20:56 49.61735 11.38492 34969 ft 482 kts 118°
2026-05-03 20:57 49.58795 11.47882 34967 ft 482 kts 118°
2026-05-03 20:57 49.56092 11.57297 34969 ft 484 kts 113°
2026-05-03 20:58 49.53830 11.67113 34966 ft 485 kts 111°
2026-05-03 20:58 49.51602 11.76921 34963 ft 485 kts 111°
2026-05-03 20:59 49.49360 11.86715 34962 ft 484 kts 111°
2026-05-03 20:59 49.47108 11.96489 34961 ft 484 kts 111°
2026-05-03 21:00 49.45589 12.03056 34960 ft 484 kts 111°
2026-05-03 21:00 49.42568 12.16048 34958 ft 484 kts 111°
2026-05-03 21:01 49.40285 12.25807 34953 ft 484 kts 111°
2026-05-03 21:01 49.37997 12.35536 34954 ft 484 kts 111°
2026-05-03 21:02 49.35647 12.45224 34950 ft 483 kts 114°
2026-05-03 21:02 49.32757 12.54516 34950 ft 482 kts 121°
2026-05-03 21:03 49.29252 12.63176 34940 ft 480 kts 127°
2026-05-03 21:03 49.25270 12.71453 34941 ft 480 kts 129°
2026-05-03 21:04 49.21282 12.79669 34936 ft 481 kts 129°
2026-05-03 21:04 49.17287 12.87894 34933 ft 481 kts 128°
2026-05-03 21:05 49.13291 12.96103 34947 ft 481 kts 128°
2026-05-03 21:05 49.09282 13.04315 34937 ft 481 kts 128°
2026-05-03 21:06 49.05268 13.12512 34932 ft 481 kts 128°
2026-05-03 21:06 49.01279 13.20633 34948 ft 481 kts 128°
2026-05-03 21:07 48.97232 13.28847 34946 ft 482 kts 128°
2026-05-03 21:07 48.93199 13.37005 34933 ft 482 kts 128°
2026-05-03 21:08 48.89159 13.45151 34944 ft 482 kts 128°
2026-05-03 21:08 48.85113 13.53280 34943 ft 483 kts 128°
2026-05-03 21:09 48.81062 13.61421 34940 ft 483 kts 127°
2026-05-03 21:09 48.77361 13.69958 34942 ft 484 kts 121°
2026-05-03 21:10 48.74275 13.79052 34946 ft 485 kts 115°
2026-05-03 21:10 48.71750 13.88585 34945 ft 485 kts 111°
2026-05-03 21:11 48.69317 13.98134 34947 ft 485 kts 111°
2026-05-03 21:11 48.66861 14.07700 34949 ft 486 kts 111°
2026-05-03 21:12 48.64399 14.17229 34946 ft 486 kts 111°
2026-05-03 21:12 48.61926 14.26747 34950 ft 486 kts 111°
2026-05-03 21:13 48.59445 14.36255 34950 ft 486 kts 111°
2026-05-03 21:13 48.56968 14.45710 34953 ft 486 kts 111°
2026-05-03 21:14 48.54460 14.55244 34957 ft 487 kts 111°
2026-05-03 21:14 48.51949 14.64751 34960 ft 487 kts 111°
2026-05-03 21:15 48.49430 14.74249 34966 ft 487 kts 111°
2026-05-03 21:15 48.46899 14.83751 34974 ft 487 kts 111°
2026-05-03 21:16 48.44365 14.93228 34975 ft 487 kts 111°
2026-05-03 21:16 48.41812 15.02737 34987 ft 488 kts 111°
2026-05-03 21:17 48.39687 15.10623 34988 ft 488 kts 111°
2026-05-03 21:17 48.36710 15.21627 34992 ft 487 kts 111°
2026-05-03 21:18 48.34137 15.31093 35001 ft 487 kts 111°
2026-05-03 21:18 48.31997 15.38937 35001 ft 487 kts 111°
2026-05-03 21:19 48.29412 15.48379 35000 ft 488 kts 111°
2026-05-03 21:19 48.26822 15.57804 35002 ft 488 kts 111°
2026-05-03 21:20 48.24215 15.67249 35013 ft 487 kts 111°
2026-05-03 21:20 48.21607 15.76662 35014 ft 487 kts 111°
2026-05-03 21:21 48.18994 15.86056 35013 ft 487 kts 111°
2026-05-03 21:21 48.16387 15.95390 35021 ft 487 kts 111°
2026-05-03 21:22 48.13748 16.04802 35029 ft 487 kts 111°
2026-05-03 21:22 48.11113 16.14162 35038 ft 487 kts 111°
2026-05-03 21:23 48.08472 16.23507 35051 ft 487 kts 111°
2026-05-03 21:23 48.05822 16.32848 35060 ft 487 kts 111°
2026-05-03 21:24 48.03161 16.42190 35065 ft 487 kts 111°
2026-05-03 21:24 48.00494 16.51519 35067 ft 487 kts 111°
2026-05-03 21:25 47.97841 16.60762 35066 ft 487 kts 111°
2026-05-03 21:25 47.95164 16.70050 35063 ft 487 kts 111°
2026-05-03 21:26 47.92474 16.79346 35067 ft 487 kts 111°
2026-05-03 21:26 47.89785 16.88603 35074 ft 486 kts 111°
2026-05-03 21:27 47.87075 16.97887 35061 ft 486 kts 112°
2026-05-03 21:27 47.84361 17.07152 35081 ft 486 kts 112°
2026-05-03 21:28 47.81911 17.16533 35076 ft 485 kts 107°
2026-05-03 21:28 47.79705 17.26028 35077 ft 485 kts 107°
2026-05-03 21:29 47.77492 17.35510 35082 ft 485 kts 107°
2026-05-03 21:29 47.75264 17.44991 35099 ft 485 kts 107°
2026-05-03 21:30 47.73027 17.54461 35105 ft 485 kts 107°
2026-05-03 21:30 47.70778 17.63941 35115 ft 485 kts 107°
2026-05-03 21:31 47.68523 17.73400 35120 ft 485 kts 107°
2026-05-03 21:31 47.66262 17.82845 35119 ft 484 kts 107°
2026-05-03 21:32 47.64011 17.92204 35123 ft 484 kts 107°
2026-05-03 21:32 47.61731 18.01645 35120 ft 484 kts 107°
2026-05-03 21:33 47.59452 18.11043 35121 ft 484 kts 107°
2026-05-03 21:33 47.57167 18.20425 35123 ft 484 kts 107°
2026-05-03 21:34 47.54875 18.29795 35125 ft 483 kts 107°
2026-05-03 21:34 47.52577 18.39153 35129 ft 483 kts 107°
2026-05-03 21:35 47.50262 18.48537 35132 ft 483 kts 107°
2026-05-03 21:35 47.47947 18.57882 35141 ft 483 kts 107°
2026-05-03 21:36 47.45642 18.67150 35142 ft 482 kts 107°
2026-05-03 21:36 47.43309 18.76487 35145 ft 482 kts 107°
2026-05-03 21:37 47.40978 18.85777 35147 ft 481 kts 107°
2026-05-03 21:37 47.38639 18.95056 35147 ft 481 kts 107°
2026-05-03 21:38 47.36287 19.04341 35146 ft 481 kts 107°
2026-05-03 21:38 47.33897 19.13557 35147 ft 481 kts 109°
2026-05-03 21:39 47.31174 19.22580 35148 ft 481 kts 111°
2026-05-03 21:39 47.28406 19.31595 35150 ft 481 kts 111°
2026-05-03 21:40 47.25654 19.40525 35152 ft 481 kts 111°
2026-05-03 21:40 47.22879 19.49494 35152 ft 481 kts 111°
2026-05-03 21:41 47.20101 19.58447 35150 ft 480 kts 111°
2026-05-03 21:41 47.17314 19.67392 35149 ft 480 kts 111°
2026-05-03 21:42 47.14523 19.76324 35150 ft 480 kts 111°
2026-05-03 21:42 47.11728 19.85234 35150 ft 480 kts 111°
2026-05-03 21:43 47.08927 19.94133 35151 ft 479 kts 111°
2026-05-03 21:43 47.06105 20.03062 35148 ft 479 kts 111°
2026-05-03 21:44 47.03295 20.11930 35150 ft 479 kts 111°
2026-05-03 21:44 47.00475 20.20795 35147 ft 479 kts 111°
2026-05-03 21:45 46.97638 20.29680 35150 ft 479 kts 111°
2026-05-03 21:45 46.94827 20.38454 35152 ft 478 kts 111°
2026-05-03 21:46 46.91990 20.47279 35152 ft 478 kts 111°
2026-05-03 21:46 46.89148 20.56091 35153 ft 478 kts 112°
2026-05-03 21:47 46.86299 20.64893 35153 ft 478 kts 112°
2026-05-03 21:47 46.83446 20.73678 35156 ft 477 kts 112°
2026-05-03 21:48 46.80581 20.82466 35155 ft 477 kts 112°
2026-05-03 21:48 46.77737 20.91165 35153 ft 477 kts 112°
2026-05-03 21:49 46.74870 20.99903 35157 ft 477 kts 112°
2026-05-03 21:49 46.71990 21.08650 35156 ft 476 kts 112°
2026-05-03 21:50 46.69116 21.17351 35159 ft 476 kts 112°
2026-05-03 21:50 46.66234 21.26044 35150 ft 475 kts 112°
2026-05-03 21:51 46.63352 21.34710 35153 ft 475 kts 112°
2026-05-03 21:51 46.60465 21.43363 35153 ft 474 kts 112°
2026-05-03 21:52 46.57573 21.51999 35154 ft 474 kts 112°
2026-05-03 21:52 46.54671 21.60641 35159 ft 473 kts 112°
2026-05-03 21:53 46.51795 21.69174 35157 ft 473 kts 112°
2026-05-03 21:53 46.48888 21.77771 35160 ft 472 kts 112°
2026-05-03 21:54 46.45987 21.86325 35160 ft 472 kts 112°
2026-05-03 21:54 46.43077 21.94875 35161 ft 472 kts 112°
2026-05-03 21:55 46.40155 22.03436 35160 ft 471 kts 112°
2026-05-03 21:55 46.37235 22.11959 35170 ft 471 kts 112°
2026-05-03 21:56 46.34334 22.20401 35170 ft 470 kts 112°
2026-05-03 21:56 46.31413 22.28875 35181 ft 470 kts 112°
2026-05-03 21:57 46.28488 22.37330 35181 ft 469 kts 112°
2026-05-03 21:57 46.25557 22.45779 35178 ft 469 kts 112°
2026-05-03 21:58 46.22618 22.54223 35188 ft 469 kts 112°
2026-05-03 21:58 46.19675 22.62649 35191 ft 469 kts 112°
2026-05-03 21:59 46.16743 22.71019 35193 ft 470 kts 112°
2026-05-03 21:59 46.13789 22.79431 35199 ft 469 kts 112°
2026-05-03 22:00 46.10827 22.87831 35197 ft 469 kts 112°
2026-05-03 22:00 46.07860 22.96224 35197 ft 469 kts 112°
2026-05-03 22:01 46.04890 23.04596 35189 ft 469 kts 112°
2026-05-03 22:01 46.01911 23.12966 35191 ft 468 kts 112°
2026-05-03 22:02 45.98915 23.21361 35196 ft 469 kts 112°
2026-05-03 22:02 45.95947 23.29648 35199 ft 468 kts 112°
2026-05-03 22:03 45.92956 23.37974 35196 ft 468 kts 112°
2026-05-03 22:03 45.89956 23.46304 35195 ft 467 kts 112°
2026-05-03 22:04 45.86962 23.54594 35202 ft 467 kts 112°
2026-05-03 22:04 45.83958 23.62880 35190 ft 467 kts 112°
2026-05-03 22:05 45.80948 23.71155 35182 ft 467 kts 112°
2026-05-03 22:05 45.77931 23.79424 35170 ft 466 kts 112°
2026-05-03 22:06 45.74916 23.87662 35160 ft 466 kts 112°
2026-05-03 22:06 45.71895 23.95887 35156 ft 466 kts 112°
2026-05-03 22:07 45.68866 24.04105 35154 ft 466 kts 112°
2026-05-03 22:07 45.65821 24.12338 35158 ft 466 kts 112°
2026-05-03 22:08 45.62723 24.20437 35168 ft 468 kts 115°
2026-05-03 22:08 45.59368 24.28419 35186 ft 468 kts 115°
2026-05-03 22:09 45.56540 24.35118 35192 ft 469 kts 115°
2026-05-03 22:10 45.51488 24.47034 35202 ft 469 kts 115°
2026-05-03 22:10 45.48094 24.55006 35205 ft 469 kts 115°
2026-05-03 22:11 45.44688 24.62987 35192 ft 469 kts 115°
2026-05-03 22:11 45.41284 24.70941 35187 ft 469 kts 115°
2026-05-03 22:12 45.37883 24.78862 35189 ft 469 kts 115°
2026-05-03 22:12 45.34472 24.86783 35189 ft 468 kts 115°
2026-05-03 22:13 45.31080 24.94646 35185 ft 469 kts 116°
2026-05-03 22:13 45.27663 25.02542 35187 ft 469 kts 116°
2026-05-03 22:14 45.24218 25.10476 35189 ft 469 kts 116°
2026-05-03 22:14 45.20784 25.18363 35179 ft 469 kts 116°
2026-05-03 22:15 45.17363 25.26200 35170 ft 470 kts 116°
2026-05-03 22:15 45.13914 25.34076 35169 ft 470 kts 117°
2026-05-03 22:16 45.10455 25.41954 35168 ft 470 kts 117°
2026-05-03 22:16 45.06981 25.49844 35172 ft 470 kts 117°
2026-05-03 22:17 45.03512 25.57702 35169 ft 470 kts 117°
2026-05-03 22:17 45.00036 25.65554 35169 ft 471 kts 118°
2026-05-03 22:18 44.96539 25.73431 35160 ft 471 kts 118°
2026-05-03 22:18 44.93043 25.81284 35160 ft 472 kts 118°
2026-05-03 22:19 44.89544 25.89122 35157 ft 472 kts 118°
2026-05-03 22:19 44.86035 25.96959 35154 ft 472 kts 118°
2026-05-03 22:20 44.82539 26.04746 35153 ft 471 kts 119°
2026-05-03 22:20 44.79018 26.12567 35150 ft 471 kts 119°
2026-05-03 22:21 44.75504 26.20350 35145 ft 471 kts 119°
2026-05-03 22:21 44.71986 26.28120 35145 ft 470 kts 120°
2026-05-03 22:22 44.68461 26.35880 35138 ft 470 kts 120°
2026-05-03 22:22 44.64932 26.43627 35135 ft 469 kts 120°
2026-05-03 22:23 44.61403 26.51347 35129 ft 469 kts 120°
2026-05-03 22:23 44.57905 26.59097 35130 ft 469 kts 118°
2026-05-03 22:24 44.54564 26.66962 35125 ft 468 kts 118°
2026-05-03 22:24 44.51218 26.74830 35126 ft 468 kts 118°
2026-05-03 22:25 44.47862 26.82661 35122 ft 468 kts 119°
2026-05-03 22:25 44.44497 26.90473 35121 ft 468 kts 119°
2026-05-03 22:26 44.41140 26.98238 35122 ft 468 kts 119°
2026-05-03 22:26 44.37748 27.06062 35122 ft 469 kts 119°
2026-05-03 22:27 44.34351 27.13872 35117 ft 469 kts 119°
2026-05-03 22:27 44.30956 27.21658 35118 ft 469 kts 120°
2026-05-03 22:28 44.27545 27.29462 35120 ft 470 kts 120°
2026-05-03 22:28 44.24128 27.37257 35108 ft 471 kts 120°
2026-05-03 22:29 44.20685 27.45088 35110 ft 472 kts 120°
2026-05-03 22:29 44.17243 27.52895 35112 ft 472 kts 120°
2026-05-03 22:30 44.13785 27.60720 35107 ft 472 kts 120°
2026-05-03 22:30 44.10317 27.68545 35103 ft 472 kts 121°
2026-05-03 22:31 44.06882 27.76274 35104 ft 472 kts 121°
2026-05-03 22:31 44.03417 27.84049 35103 ft 472 kts 121°
2026-05-03 22:32 43.99938 27.91837 35101 ft 471 kts 121°
2026-05-03 22:32 43.96476 27.99565 35104 ft 470 kts 121°
2026-05-03 22:33 43.93005 28.07290 35089 ft 469 kts 122°
2026-05-03 22:33 43.89535 28.14990 35092 ft 469 kts 122°
2026-05-03 22:34 43.86065 28.22669 35080 ft 469 kts 122°
2026-05-03 22:34 43.82577 28.30366 35086 ft 470 kts 122°
2026-05-03 22:35 43.79095 28.38029 35080 ft 470 kts 122°
2026-05-03 22:35 43.75622 28.45645 35082 ft 470 kts 122°
2026-05-03 22:36 43.72120 28.53314 35077 ft 471 kts 123°
2026-05-03 22:36 43.68605 28.60978 35085 ft 471 kts 123°
2026-05-03 22:37 43.65079 28.68631 35077 ft 471 kts 123°
2026-05-03 22:37 43.61552 28.76261 35080 ft 471 kts 123°
2026-05-03 22:38 43.58021 28.83879 35073 ft 471 kts 123°
2026-05-03 22:38 43.54501 28.91450 35072 ft 471 kts 124°
2026-05-03 22:39 43.50959 28.99049 35064 ft 471 kts 124°
2026-05-03 22:39 43.47398 29.06668 35061 ft 471 kts 124°
2026-05-03 22:40 43.43843 29.14255 35051 ft 471 kts 124°
2026-05-03 22:40 43.40281 29.21837 35051 ft 471 kts 124°
2026-05-03 22:41 43.36710 29.29420 35042 ft 472 kts 125°
2026-05-03 22:41 43.33126 29.37008 35040 ft 472 kts 125°
2026-05-03 22:42 43.29540 29.44583 35040 ft 473 kts 125°
2026-05-03 22:42 43.25934 29.52179 35034 ft 473 kts 125°
2026-05-03 22:43 43.22352 29.59708 35025 ft 473 kts 126°
2026-05-03 22:43 43.18746 29.67266 35021 ft 473 kts 126°
2026-05-03 22:44 43.15132 29.74821 35016 ft 473 kts 126°
2026-05-03 22:44 43.11518 29.82358 35009 ft 473 kts 126°
2026-05-03 22:45 43.07897 29.89888 35005 ft 473 kts 126°
2026-05-03 22:45 43.04273 29.97408 35004 ft 472 kts 127°
2026-05-03 22:46 43.00646 30.04912 34995 ft 472 kts 127°
2026-05-03 22:46 42.96995 30.12445 34991 ft 472 kts 127°
2026-05-03 22:47 42.93362 30.19922 34985 ft 472 kts 127°
2026-05-03 22:47 42.89721 30.27395 34977 ft 472 kts 127°
2026-05-03 22:48 42.86077 30.34854 34974 ft 472 kts 128°
2026-05-03 22:48 42.82450 30.42253 34966 ft 472 kts 128°
2026-05-03 22:49 42.78796 30.49717 34963 ft 473 kts 127°
2026-05-03 22:49 42.75498 30.57503 34954 ft 477 kts 121°
2026-05-03 22:50 42.72773 30.65794 34947 ft 481 kts 116°
2026-05-03 22:50 42.70660 30.74487 34946 ft 485 kts 111°
2026-05-03 22:51 42.68744 30.83303 34944 ft 486 kts 111°
2026-05-03 22:51 42.66818 30.92129 34941 ft 487 kts 112°
2026-05-03 22:52 42.64871 31.00991 34936 ft 488 kts 112°
2026-05-03 22:52 42.62918 31.09833 34930 ft 489 kts 112°
2026-05-03 22:53 42.60953 31.18689 34922 ft 489 kts 112°
2026-05-03 22:53 42.58978 31.27552 34921 ft 490 kts 113°
2026-05-03 22:54 42.56990 31.36437 34917 ft 491 kts 113°
2026-05-03 22:54 42.54994 31.45319 34909 ft 492 kts 113°
2026-05-03 22:55 42.52998 31.54169 34904 ft 493 kts 113°
2026-05-03 22:55 42.51326 31.61554 34905 ft 493 kts 114°
2026-05-03 22:56 42.48957 31.71973 34900 ft 494 kts 114°
2026-05-03 22:56 42.47265 31.79385 34894 ft 495 kts 114°
2026-05-03 22:57 42.45219 31.88317 34889 ft 496 kts 114°
2026-05-03 22:57 42.43165 31.97250 34888 ft 497 kts 114°
2026-05-03 22:58 42.41092 32.06224 34881 ft 498 kts 114°
2026-05-03 22:58 42.39016 32.15182 34878 ft 499 kts 114°
2026-05-03 22:59 42.36870 32.24395 34877 ft 500 kts 115°
2026-05-03 22:59 42.34772 32.33372 34878 ft 500 kts 115°
2026-05-03 23:00 42.32660 32.42368 34874 ft 501 kts 115°
2026-05-03 23:00 42.30543 32.51352 34866 ft 502 kts 115°
2026-05-03 23:01 42.28412 32.60361 34862 ft 503 kts 115°
2026-05-03 23:01 42.26283 32.69324 34860 ft 503 kts 115°
2026-05-03 23:02 42.24135 32.78330 34857 ft 504 kts 115°
2026-05-03 23:02 42.21979 32.87338 34854 ft 504 kts 115°
2026-05-03 23:03 42.19813 32.96347 34852 ft 504 kts 115°
2026-05-03 23:03 42.17633 33.05380 34856 ft 504 kts 115°
2026-05-03 23:04 42.15458 33.14395 34858 ft 505 kts 116°
2026-05-03 23:04 42.13283 33.23347 34857 ft 505 kts 116°
2026-05-03 23:05 42.11085 33.32354 34853 ft 504 kts 116°
2026-05-03 23:05 42.08888 33.41322 34856 ft 504 kts 116°
2026-05-03 23:06 42.06678 33.50303 34852 ft 503 kts 116°
2026-05-03 23:06 42.04468 33.59251 34862 ft 503 kts 116°
2026-05-03 23:07 42.02254 33.68179 34850 ft 502 kts 116°
2026-05-03 23:07 42.00030 33.77115 34848 ft 502 kts 116°
2026-05-03 23:08 41.97805 33.86020 34849 ft 501 kts 116°
2026-05-03 23:08 41.95589 33.94854 34854 ft 501 kts 116°
2026-05-03 23:09 41.93346 34.03765 34840 ft 500 kts 116°
2026-05-03 23:09 41.91101 34.12636 34838 ft 500 kts 116°
2026-05-03 23:10 41.88851 34.21504 34841 ft 499 kts 116°
2026-05-03 23:10 41.86603 34.30335 34836 ft 499 kts 116°
2026-05-03 23:11 41.84347 34.39157 34824 ft 498 kts 116°
2026-05-03 23:11 41.82087 34.47960 34832 ft 498 kts 116°
2026-05-03 23:12 41.79836 34.56704 34827 ft 498 kts 116°
2026-05-03 23:12 41.77566 34.65489 34831 ft 498 kts 116°
2026-05-03 23:13 41.75285 34.74287 34828 ft 497 kts 117°
2026-05-03 23:13 41.72997 34.83077 34822 ft 497 kts 117°
2026-05-03 23:14 41.70712 34.91828 34816 ft 497 kts 117°
2026-05-03 23:14 41.68413 35.00597 34816 ft 497 kts 117°
2026-05-03 23:15 41.66129 35.09276 34803 ft 497 kts 117°
2026-05-03 23:15 41.63824 35.18005 34805 ft 496 kts 117°
2026-05-03 23:16 41.61515 35.26717 34803 ft 496 kts 117°
2026-05-03 23:16 41.59196 35.35434 34803 ft 496 kts 117°
2026-05-03 23:17 41.56880 35.44119 34795 ft 495 kts 117°
2026-05-03 23:17 41.54552 35.52805 34793 ft 495 kts 117°
2026-05-03 23:18 41.52224 35.61462 34796 ft 495 kts 117°
2026-05-03 23:18 41.49898 35.70083 34791 ft 495 kts 116°
2026-05-03 23:19 41.47550 35.78758 34790 ft 495 kts 116°
2026-05-03 23:19 41.45197 35.87420 34787 ft 495 kts 116°
2026-05-03 23:20 41.42842 35.96058 34787 ft 496 kts 116°
2026-05-03 23:20 41.40473 36.04670 35150 ft 476 kts 112°
2026-05-03 23:20 41.39371 36.08699 35534 ft 451 kts 112°
2026-05-03 23:21 41.38309 36.12600 35526 ft 444 kts 113°
2026-05-03 23:21 41.36174 36.20330 35527 ft 443 kts 113°
2026-05-03 23:22 41.32973 36.31878 35514 ft 442 kts 113°
2026-05-03 23:22 41.30837 36.39562 35514 ft 442 kts 113°
2026-05-03 23:23 41.28749 36.47202 35504 ft 442 kts 111°
2026-05-03 23:23 41.27082 36.55096 35503 ft 444 kts 106°
2026-05-03 23:24 41.25988 36.63205 35497 ft 447 kts 101°
2026-05-03 23:24 41.25342 36.71448 35496 ft 447 kts 99°
2026-05-03 23:25 41.24732 36.79681 35494 ft 447 kts 99°
2026-05-03 23:25 41.24116 36.87907 35490 ft 447 kts 100°
2026-05-03 23:26 41.23495 36.96128 35487 ft 446 kts 100°
2026-05-03 23:26 41.22862 37.04399 35480 ft 446 kts 100°
2026-05-03 23:27 41.22227 37.12608 35475 ft 446 kts 100°
2026-05-03 23:27 41.21588 37.20802 35469 ft 446 kts 100°
2026-05-03 23:28 41.20974 37.29018 35464 ft 446 kts 99°
2026-05-03 23:28 41.20381 37.37185 35455 ft 446 kts 100°
2026-05-03 23:29 41.19771 37.45388 35453 ft 446 kts 100°
2026-05-03 23:29 41.19152 37.53598 35446 ft 446 kts 100°
2026-05-03 23:30 41.18686 37.61841 35440 ft 446 kts 99°
2026-05-03 23:30 41.18023 37.70057 35433 ft 446 kts 101°
2026-05-03 23:31 41.17326 37.78257 35422 ft 446 kts 101°
2026-05-03 23:31 41.16628 37.86400 35410 ft 446 kts 101°
2026-05-03 23:32 41.15957 37.94597 35401 ft 446 kts 101°
2026-05-03 23:32 41.15308 38.02822 35391 ft 447 kts 101°
2026-05-03 23:33 41.14648 38.11031 35384 ft 447 kts 101°
2026-05-03 23:33 41.13979 38.19205 35380 ft 447 kts 101°
2026-05-03 23:34 41.13303 38.27413 35377 ft 447 kts 101°
2026-05-03 23:34 41.12629 38.35640 35374 ft 448 kts 101°
2026-05-03 23:35 41.11950 38.43859 35371 ft 448 kts 101°
2026-05-03 23:35 41.11260 38.52079 35371 ft 448 kts 101°
2026-05-03 23:36 41.10563 38.60314 35370 ft 448 kts 101°
2026-05-03 23:36 41.09852 38.68552 35360 ft 449 kts 101°
2026-05-03 23:37 41.09124 38.76783 35353 ft 449 kts 101°
2026-05-03 23:37 41.08386 38.84965 35343 ft 449 kts 101°
2026-05-03 23:38 41.07635 38.93210 35338 ft 450 kts 102°
2026-05-03 23:38 41.06874 39.01477 35330 ft 450 kts 102°
2026-05-03 23:39 41.06107 39.09735 35324 ft 450 kts 102°
2026-05-03 23:39 41.05344 39.17995 35311 ft 451 kts 102°
2026-05-03 23:40 41.04590 39.26266 35303 ft 452 kts 102°
2026-05-03 23:40 41.03831 39.34486 35296 ft 452 kts 102°
2026-05-03 23:41 41.03056 39.42788 35282 ft 453 kts 102°
2026-05-03 23:41 41.02273 39.51105 35276 ft 453 kts 102°
2026-05-03 23:42 41.01484 39.59397 35265 ft 454 kts 102°
2026-05-03 23:42 41.00687 39.67700 35258 ft 454 kts 102°
2026-05-03 23:43 40.99881 39.76059 35253 ft 455 kts 101°
2026-05-03 23:43 40.99426 39.84420 35245 ft 459 kts 97°
2026-05-03 23:44 40.99228 39.92887 35239 ft 460 kts 96°
2026-05-03 23:44 40.99027 40.01400 35230 ft 460 kts 97°
2026-05-03 23:45 40.98815 40.09880 35223 ft 461 kts 97°
2026-05-03 23:45 40.98593 40.18397 35216 ft 461 kts 97°
2026-05-03 23:46 40.98370 40.26930 35208 ft 462 kts 97°
2026-05-03 23:46 40.98179 40.34001 35207 ft 462 kts 97°
2026-05-03 23:47 40.97941 40.42511 35200 ft 462 kts 97°
2026-05-03 23:47 40.97653 40.52447 35191 ft 463 kts 97°
2026-05-03 23:48 40.97440 40.59600 35180 ft 463 kts 97°
2026-05-03 23:48 40.97179 40.68133 35163 ft 463 kts 97°
2026-05-03 23:49 40.96911 40.76671 35160 ft 464 kts 97°
2026-05-03 23:49 40.96635 40.85235 35157 ft 465 kts 97°
2026-05-03 23:50 40.96358 40.93817 35151 ft 466 kts 96°
2026-05-03 23:50 40.96078 41.02374 35145 ft 467 kts 96°
2026-05-03 23:51 40.95788 41.10985 35144 ft 468 kts 96°
2026-05-03 23:51 40.95489 41.19596 35144 ft 468 kts 96°
2026-05-03 23:52 40.95182 41.28219 35131 ft 468 kts 97°
2026-05-03 23:52 40.94868 41.36884 35134 ft 472 kts 97°
2026-05-03 23:53 40.94543 41.45577 35115 ft 473 kts 97°
2026-05-03 23:53 40.94215 41.54272 35111 ft 473 kts 97°
2026-05-03 23:54 40.93879 41.62982 35115 ft 473 kts 97°
2026-05-03 23:54 40.93536 41.71689 35105 ft 473 kts 97°
2026-05-03 23:55 40.93188 41.80385 35103 ft 473 kts 97°
2026-05-03 23:55 40.92834 41.89095 35101 ft 473 kts 97°
2026-05-03 23:56 40.92471 41.97763 35102 ft 474 kts 97°
2026-05-03 23:56 40.92097 42.06517 35106 ft 475 kts 97°
2026-05-03 23:57 40.91719 42.15256 35106 ft 475 kts 97°
2026-05-03 23:57 40.91336 42.23999 35111 ft 476 kts 97°
2026-05-03 23:58 40.90946 42.32747 35123 ft 476 kts 97°
2026-05-03 23:58 40.90547 42.41525 35129 ft 478 kts 97°
2026-05-03 23:59 40.90143 42.50262 35127 ft 479 kts 97°
2026-05-03 23:59 40.89729 42.59068 35125 ft 480 kts 97°
2026-05-04 00:00 40.89308 42.67898 35121 ft 480 kts 97°
2026-05-04 00:00 40.88879 42.76735 35116 ft 481 kts 97°
2026-05-04 00:01 40.88443 42.85588 35107 ft 482 kts 97°
2026-05-04 00:01 40.87999 42.94454 35107 ft 483 kts 97°
2026-05-04 00:02 40.87547 43.03339 35107 ft 484 kts 98°
2026-05-04 00:02 40.87088 43.12231 35103 ft 484 kts 98°
2026-05-04 00:03 40.86622 43.21122 35103 ft 485 kts 98°
2026-05-04 00:03 40.86151 43.29969 35088 ft 485 kts 98°
2026-05-04 00:04 40.85669 43.38884 35090 ft 486 kts 98°
2026-05-04 00:04 40.85179 43.47794 35096 ft 486 kts 98°
2026-05-04 00:05 40.84679 43.56752 35106 ft 487 kts 98°
2026-05-04 00:05 40.84172 43.65697 35117 ft 487 kts 99°
2026-05-04 00:06 40.83331 43.74560 35118 ft 485 kts 103°
2026-05-04 00:06 40.82295 43.83388 35115 ft 486 kts 103°
2026-05-04 00:07 40.81245 43.92224 35107 ft 487 kts 103°
2026-05-04 00:07 40.80193 44.01061 35101 ft 487 kts 103°
2026-05-04 00:08 40.79132 44.09921 35093 ft 488 kts 103°
2026-05-04 00:08 40.78069 44.18744 35081 ft 489 kts 103°
2026-05-04 00:09 40.76993 44.27621 35074 ft 490 kts 103°
2026-05-04 00:09 40.75907 44.36515 35072 ft 491 kts 103°
2026-05-04 00:10 40.74811 44.45433 35062 ft 492 kts 103°
2026-05-04 00:10 40.73705 44.54378 35059 ft 494 kts 103°
2026-05-04 00:11 40.72591 44.63329 35054 ft 495 kts 103°
2026-05-04 00:11 40.71467 44.72301 35036 ft 496 kts 103°
2026-05-04 00:12 40.70332 44.81299 35039 ft 497 kts 103°
2026-05-04 00:12 40.69187 44.90318 35028 ft 498 kts 103°
2026-05-04 00:13 40.68035 44.99330 35019 ft 498 kts 103°
2026-05-04 00:13 40.66875 45.08343 35015 ft 499 kts 103°
2026-05-04 00:14 40.65704 45.17369 35002 ft 500 kts 103°
2026-05-04 00:14 40.64521 45.26435 34997 ft 500 kts 103°
2026-05-04 00:15 40.63340 45.35422 34990 ft 500 kts 103°
2026-05-04 00:15 40.62152 45.44470 34989 ft 501 kts 103°
2026-05-04 00:16 40.60959 45.53515 34986 ft 501 kts 103°
2026-05-04 00:16 40.59753 45.62565 34977 ft 502 kts 103°
2026-05-04 00:17 40.58536 45.71630 34968 ft 502 kts 103°
2026-05-04 00:17 40.57310 45.80708 34962 ft 503 kts 103°
2026-05-04 00:18 40.56074 45.89794 34960 ft 504 kts 103°
2026-05-04 00:18 40.54828 45.98893 34965 ft 505 kts 104°
2026-05-04 00:19 40.53569 46.08021 34969 ft 505 kts 104°
2026-05-04 00:19 40.52311 46.17073 34969 ft 507 kts 104°
2026-05-04 00:20 40.51043 46.26213 34966 ft 508 kts 104°
2026-05-04 00:20 40.49767 46.35368 34965 ft 509 kts 104°
2026-05-04 00:21 40.48475 46.44547 34962 ft 510 kts 104°
2026-05-04 00:21 40.47172 46.53736 34962 ft 511 kts 104°
2026-05-04 00:22 40.45861 46.62926 34961 ft 512 kts 104°
2026-05-04 00:22 40.44539 46.72132 34962 ft 512 kts 104°
2026-05-04 00:23 40.43218 46.81279 34962 ft 513 kts 104°
2026-05-04 00:23 40.41879 46.90492 34964 ft 513 kts 104°
2026-05-04 00:24 40.40531 46.99717 34969 ft 514 kts 105°
2026-05-04 00:24 40.39170 47.08976 34967 ft 515 kts 105°
2026-05-04 00:25 40.37803 47.18222 34968 ft 515 kts 105°
2026-05-04 00:25 40.36429 47.27460 34963 ft 516 kts 105°
2026-05-04 00:26 40.35045 47.36714 34965 ft 517 kts 105°
2026-05-04 00:26 40.33654 47.45967 34959 ft 517 kts 105°
2026-05-04 00:27 40.32251 47.55236 34956 ft 518 kts 105°
2026-05-04 00:27 40.30840 47.64512 34952 ft 519 kts 105°
2026-05-04 00:28 40.29420 47.73792 34951 ft 519 kts 105°
2026-05-04 00:28 40.27996 47.83052 34943 ft 520 kts 105°
2026-05-04 00:29 40.26548 47.92404 34943 ft 521 kts 105°
2026-05-04 00:29 40.25089 48.01776 34931 ft 522 kts 105°
2026-05-04 00:30 40.23625 48.11131 34923 ft 523 kts 105°
2026-05-04 00:30 40.22151 48.20503 34921 ft 524 kts 105°
2026-05-04 00:31 40.20665 48.29893 34914 ft 524 kts 105°
2026-05-04 00:31 40.19170 48.39283 34905 ft 525 kts 105°
2026-05-04 00:32 40.17655 48.48746 34903 ft 526 kts 105°
2026-05-04 00:32 40.16144 48.58127 34894 ft 526 kts 105°
2026-05-04 00:33 40.13863 48.72173 34892 ft 527 kts 105°
2026-05-04 00:34 40.12328 48.81598 34887 ft 527 kts 105°
2026-05-04 00:34 40.10798 48.90972 34887 ft 527 kts 105°
2026-05-04 00:35 40.09245 49.00409 34882 ft 527 kts 105°
2026-05-04 00:35 40.07688 49.09798 34882 ft 528 kts 105°
2026-05-04 00:36 40.06378 49.17658 34876 ft 528 kts 105°
2026-05-04 00:36 40.04807 49.27036 34878 ft 528 kts 105°
2026-05-04 00:37 40.03237 49.36364 34877 ft 529 kts 105°
2026-05-04 00:37 40.01634 49.45833 34870 ft 529 kts 105°
2026-05-04 00:38 40.00035 49.55228 34864 ft 530 kts 105°
2026-05-04 00:38 39.98420 49.64672 34863 ft 530 kts 105°
2026-05-04 00:39 39.96801 49.74087 34859 ft 531 kts 105°
2026-05-04 00:39 39.95176 49.83494 34857 ft 531 kts 105°
2026-05-04 00:40 39.93540 49.92905 34855 ft 531 kts 105°
2026-05-04 00:40 39.91906 50.02268 34852 ft 531 kts 105°
2026-05-04 00:41 39.90252 50.11691 34851 ft 532 kts 105°
2026-05-04 00:41 39.88593 50.21093 34846 ft 532 kts 105°
2026-05-04 00:42 39.86927 50.30493 34841 ft 532 kts 105°
2026-05-04 00:42 39.85249 50.39909 34836 ft 533 kts 105°
2026-05-04 00:43 39.83566 50.49311 34832 ft 533 kts 105°
2026-05-04 00:43 39.81873 50.58715 34826 ft 533 kts 105°
2026-05-04 00:44 39.80169 50.68134 34821 ft 534 kts 105°
2026-05-04 00:44 39.78457 50.77553 34814 ft 534 kts 105°
2026-05-04 00:45 39.76737 50.86963 34810 ft 535 kts 105°
2026-05-04 00:45 39.75007 50.96387 34804 ft 535 kts 106°
2026-05-04 00:46 39.73263 51.05839 34801 ft 535 kts 106°
2026-05-04 00:46 39.71515 51.15261 34798 ft 535 kts 106°
2026-05-04 00:47 39.69769 51.24623 34795 ft 536 kts 106°
2026-05-04 00:47 39.68003 51.34048 34789 ft 536 kts 106°
2026-05-04 00:48 39.66231 51.43441 34789 ft 536 kts 106°
2026-05-04 00:48 39.64582 51.52894 34776 ft 536 kts 102°
2026-05-04 00:49 39.63248 51.62433 34778 ft 537 kts 102°
2026-05-04 00:49 39.61922 51.72009 34775 ft 537 kts 102°
2026-05-04 00:50 39.60579 51.81562 34772 ft 537 kts 102°
2026-05-04 00:50 39.59224 51.91101 34762 ft 537 kts 102°
2026-05-04 00:51 39.57862 52.00614 34758 ft 537 kts 102°
2026-05-04 00:51 39.56490 52.10143 34755 ft 537 kts 102°
2026-05-04 00:52 39.55109 52.19681 34753 ft 537 kts 102°
2026-05-04 00:52 39.53718 52.29220 34750 ft 537 kts 102°
2026-05-04 00:53 39.52331 52.38682 34746 ft 537 kts 102°
2026-05-04 00:53 39.50925 52.48210 34739 ft 537 kts 102°
2026-05-04 00:54 39.49512 52.57736 34738 ft 537 kts 102°
2026-05-04 00:54 39.48090 52.67256 34734 ft 538 kts 102°
2026-05-04 00:55 39.46661 52.76775 34727 ft 538 kts 102°
2026-05-04 00:55 39.45223 52.86302 34720 ft 538 kts 102°
2026-05-04 00:56 39.43776 52.95824 34718 ft 539 kts 103°
2026-05-04 00:56 39.42317 53.05375 34714 ft 539 kts 103°
2026-05-04 00:57 39.40849 53.14932 34710 ft 539 kts 103°
2026-05-04 00:57 39.39373 53.24478 34703 ft 538 kts 103°
2026-05-04 00:58 39.37892 53.34013 34700 ft 538 kts 103°
2026-05-04 00:58 39.36413 53.43472 34695 ft 538 kts 103°
2026-05-04 00:59 39.34912 53.53020 34691 ft 538 kts 103°
2026-05-04 00:59 39.33396 53.62612 34688 ft 538 kts 103°
2026-05-04 01:00 39.31887 53.72102 34682 ft 538 kts 103°
2026-05-04 01:00 39.30371 53.81588 34679 ft 538 kts 103°
2026-05-04 01:01 39.28846 53.91075 34673 ft 538 kts 103°
2026-05-04 01:01 39.27310 54.00576 34663 ft 538 kts 103°
2026-05-04 01:02 39.25768 54.10061 34661 ft 538 kts 103°
2026-05-04 01:02 39.24221 54.19522 34655 ft 538 kts 103°
2026-05-04 01:03 39.22657 54.29035 34657 ft 538 kts 103°
2026-05-04 01:03 39.21090 54.38513 34654 ft 538 kts 103°
2026-05-04 01:04 39.19508 54.48016 34652 ft 538 kts 103°
2026-05-04 01:04 39.17927 54.57472 34659 ft 539 kts 103°
2026-05-04 01:05 39.16346 54.66937 34662 ft 539 kts 103°
2026-05-04 01:05 39.14755 54.76384 34665 ft 539 kts 103°
2026-05-04 01:06 39.13148 54.85849 34668 ft 539 kts 103°
2026-05-04 01:06 39.11548 54.95222 34668 ft 539 kts 103°
2026-05-04 01:07 39.09923 55.04696 34665 ft 539 kts 103°
2026-05-04 01:07 39.08294 55.14136 34670 ft 539 kts 103°
2026-05-04 01:08 39.06656 55.23577 34672 ft 539 kts 103°
2026-05-04 01:08 39.05012 55.33004 34670 ft 539 kts 103°
2026-05-04 01:09 39.03358 55.42429 34669 ft 539 kts 103°
2026-05-04 01:09 39.01696 55.51856 34663 ft 539 kts 103°
2026-05-04 01:10 39.00039 55.61263 34655 ft 538 kts 103°
2026-05-04 01:10 38.98377 55.70684 34652 ft 538 kts 103°
2026-05-04 01:11 38.96708 55.80068 34654 ft 537 kts 103°
2026-05-04 01:11 38.95043 55.89374 34652 ft 536 kts 103°
2026-05-04 01:12 38.93364 55.98709 34643 ft 535 kts 103°
2026-05-04 01:12 38.91672 56.08065 34647 ft 535 kts 103°
2026-05-04 01:13 38.89976 56.17402 34638 ft 534 kts 103°
2026-05-04 01:13 38.88280 56.26688 34642 ft 533 kts 103°
2026-05-04 01:14 38.86579 56.35962 34632 ft 532 kts 103°
2026-05-04 01:14 38.84873 56.45218 34626 ft 532 kts 103°
2026-05-04 01:15 38.83161 56.54462 34625 ft 532 kts 103°
2026-05-04 01:15 38.81454 56.63631 34619 ft 531 kts 103°
2026-05-04 01:16 38.79730 56.72854 34615 ft 530 kts 103°
2026-05-04 01:16 38.77999 56.82069 34611 ft 530 kts 103°
2026-05-04 01:17 38.76266 56.91250 34616 ft 529 kts 103°
2026-05-04 01:17 38.74520 57.00457 34606 ft 529 kts 103°
2026-05-04 01:18 38.72773 57.09624 34602 ft 528 kts 104°
2026-05-04 01:18 38.71024 57.18766 34600 ft 528 kts 104°
2026-05-04 01:19 38.69265 57.27908 34602 ft 528 kts 104°
2026-05-04 01:19 38.67503 57.37027 34601 ft 527 kts 104°
2026-05-04 01:20 38.65732 57.46141 34596 ft 527 kts 104°
2026-05-04 01:20 38.63965 57.55190 34593 ft 527 kts 104°
2026-05-04 01:21 38.62084 57.64260 34596 ft 527 kts 107°
2026-05-04 01:21 38.59512 57.73035 34595 ft 526 kts 114°
2026-05-04 01:22 38.56517 57.81574 34589 ft 526 kts 115°
2026-05-04 01:22 38.53501 57.90104 34591 ft 526 kts 115°
2026-05-04 01:23 38.51000 57.97204 34589 ft 526 kts 115°
2026-05-04 01:23 38.47980 58.05772 34589 ft 526 kts 115°
2026-05-04 01:24 38.44964 58.14301 34589 ft 527 kts 115°
2026-05-04 01:24 38.41946 58.22841 34588 ft 527 kts 114°
2026-05-04 01:25 38.39392 58.31614 34585 ft 527 kts 107°
2026-05-04 01:25 38.37510 58.40658 34591 ft 527 kts 103°
2026-05-04 01:26 38.35741 58.49677 34588 ft 527 kts 103°
2026-05-04 01:26 38.33939 58.58754 34588 ft 527 kts 104°
2026-05-04 01:27 38.32112 58.67859 34595 ft 527 kts 104°
2026-05-04 01:27 38.30283 58.76914 34596 ft 527 kts 104°
2026-05-04 01:28 38.28446 58.85965 34594 ft 527 kts 104°
2026-05-04 01:28 38.26604 58.95001 34601 ft 527 kts 104°
2026-05-04 01:29 38.24750 59.04063 34609 ft 526 kts 104°
2026-05-04 01:29 38.22895 59.13083 34607 ft 526 kts 104°
2026-05-04 01:30 38.21035 59.22097 34611 ft 526 kts 104°
2026-05-04 01:30 38.19167 59.31107 34613 ft 526 kts 104°
2026-05-04 01:31 38.17292 59.40112 34619 ft 526 kts 104°
2026-05-04 01:31 38.15409 59.49119 34618 ft 525 kts 104°
2026-05-04 01:32 38.13522 59.58106 34626 ft 525 kts 104°
2026-05-04 01:32 38.11645 59.67011 34626 ft 525 kts 104°
2026-05-04 01:33 38.09748 59.75970 34629 ft 524 kts 104°
2026-05-04 01:33 38.07844 59.84926 34634 ft 524 kts 104°
2026-05-04 01:34 38.05934 59.93870 34638 ft 524 kts 104°
2026-05-04 01:34 38.04013 60.02824 34641 ft 523 kts 104°
2026-05-04 01:35 38.02091 60.11742 34649 ft 523 kts 104°
2026-05-04 01:35 38.00163 60.20663 34650 ft 523 kts 104°
2026-05-04 01:36 37.98228 60.29601 34652 ft 523 kts 104°
2026-05-04 01:36 37.96300 60.38443 34662 ft 523 kts 104°
2026-05-04 01:37 37.94338 60.47396 34659 ft 523 kts 104°
2026-05-04 01:37 37.92395 60.56224 34664 ft 523 kts 104°
2026-05-04 01:38 37.90430 60.65119 34665 ft 523 kts 104°
2026-05-04 01:38 37.88459 60.74000 34670 ft 523 kts 104°
2026-05-04 01:39 37.86484 60.82868 34675 ft 523 kts 104°
2026-05-04 01:39 37.84499 60.91743 34679 ft 523 kts 104°
2026-05-04 01:40 37.82503 61.00635 34677 ft 523 kts 104°
2026-05-04 01:40 37.80506 61.09496 34684 ft 523 kts 104°
2026-05-04 01:41 37.78516 61.18292 34687 ft 523 kts 104°
2026-05-04 01:41 37.76508 61.27135 34693 ft 523 kts 104°
2026-05-04 01:42 37.74484 61.36011 34693 ft 522 kts 104°
2026-05-04 01:42 37.72464 61.44835 34695 ft 522 kts 104°
2026-05-04 01:43 37.70435 61.53662 34710 ft 522 kts 104°
2026-05-04 01:43 37.68401 61.62470 34719 ft 522 kts 104°
2026-05-04 01:44 37.66360 61.71271 34734 ft 521 kts 104°
2026-05-04 01:44 37.64226 61.80038 34740 ft 522 kts 108°
2026-05-04 01:45 37.61424 61.88493 34745 ft 523 kts 115°
2026-05-04 01:45 37.55752 62.00283 34741 ft 523 kts 126°
2026-05-04 01:46 37.51427 62.07600 34733 ft 523 kts 127°
2026-05-04 01:46 37.47057 62.14966 34726 ft 523 kts 127°
2026-05-04 01:47 37.42697 62.22335 34720 ft 523 kts 127°
2026-05-04 01:47 37.38352 62.29675 34720 ft 523 kts 127°
2026-05-04 01:48 37.34002 62.37014 34720 ft 523 kts 127°
2026-05-04 01:48 37.29648 62.44345 34723 ft 522 kts 127°
2026-05-04 01:49 37.25297 62.51654 34723 ft 522 kts 127°
2026-05-04 01:49 37.20963 62.58918 34719 ft 522 kts 127°
2026-05-04 01:50 37.16598 62.66219 34720 ft 522 kts 127°
2026-05-04 01:50 37.12231 62.73507 34720 ft 522 kts 127°
2026-05-04 01:51 37.07857 62.80790 34724 ft 522 kts 127°
2026-05-04 01:51 37.03482 62.88060 34727 ft 522 kts 127°
2026-05-04 01:52 36.99085 62.95350 34729 ft 522 kts 127°
2026-05-04 01:52 36.94690 63.02621 34732 ft 522 kts 127°
2026-05-04 01:53 36.90300 63.09867 34734 ft 522 kts 127°
2026-05-04 01:53 36.85912 63.17096 34737 ft 521 kts 127°
2026-05-04 01:54 36.81522 63.24311 34743 ft 521 kts 127°
2026-05-04 01:54 36.77130 63.31515 34746 ft 521 kts 127°
2026-05-04 01:55 36.72728 63.38720 34750 ft 521 kts 127°
2026-05-04 01:55 36.68348 63.45873 34747 ft 522 kts 127°
2026-05-04 01:56 36.63938 63.53060 34751 ft 521 kts 127°
2026-05-04 01:56 36.59523 63.60240 34755 ft 522 kts 127°
2026-05-04 01:57 36.55102 63.67414 34755 ft 522 kts 127°
2026-05-04 01:57 36.50672 63.74588 34755 ft 522 kts 127°
2026-05-04 01:58 36.46241 63.81748 34756 ft 522 kts 127°
2026-05-04 01:58 36.41806 63.88898 34756 ft 522 kts 127°
2026-05-04 01:59 36.37358 63.96055 34756 ft 522 kts 127°
2026-05-04 01:59 36.32904 64.03206 34751 ft 522 kts 127°
2026-05-04 02:00 36.28453 64.10336 34751 ft 522 kts 127°
2026-05-04 02:00 36.23994 64.17461 34752 ft 522 kts 128°
2026-05-04 02:01 36.19560 64.24528 34754 ft 522 kts 128°
2026-05-04 02:01 36.15117 64.31668 34756 ft 522 kts 126°
2026-05-04 02:02 36.10810 64.38956 34757 ft 522 kts 126°
2026-05-04 02:02 36.06520 64.46234 34757 ft 523 kts 126°
2026-05-04 02:03 36.02216 64.53485 34762 ft 523 kts 126°
2026-05-04 02:03 35.97890 64.60736 34755 ft 523 kts 126°
2026-05-04 02:04 35.93565 64.67967 34757 ft 523 kts 126°
2026-05-04 02:04 35.89233 64.75192 34763 ft 523 kts 126°
2026-05-04 02:05 35.84897 64.82407 34762 ft 523 kts 126°
2026-05-04 02:05 35.80590 64.89563 34766 ft 523 kts 126°
2026-05-04 02:06 35.76243 64.96768 34765 ft 523 kts 126°
2026-05-04 02:06 35.71882 65.03982 34768 ft 523 kts 126°
2026-05-04 02:07 35.67529 65.11168 34771 ft 523 kts 126°
2026-05-04 02:07 35.63163 65.18358 34776 ft 523 kts 126°
2026-05-04 02:08 35.58790 65.25547 34772 ft 524 kts 126°
2026-05-04 02:08 35.54421 65.32716 34777 ft 524 kts 126°
2026-05-04 02:09 35.50073 65.39834 34785 ft 524 kts 126°
2026-05-04 02:09 35.45692 65.46993 34783 ft 525 kts 126°
2026-05-04 02:10 35.41294 65.54164 34791 ft 525 kts 126°
2026-05-04 02:10 35.36881 65.61344 34788 ft 525 kts 126°
2026-05-04 02:11 35.33220 65.67290 34794 ft 525 kts 126°
2026-05-04 02:11 35.28804 65.74447 34800 ft 526 kts 126°
2026-05-04 02:12 35.24387 65.81593 34802 ft 526 kts 126°
2026-05-04 02:12 35.19958 65.88742 34805 ft 526 kts 126°
2026-05-04 02:13 35.15528 65.95878 34810 ft 527 kts 126°
2026-05-04 02:13 35.11065 66.03051 34810 ft 527 kts 127°
2026-05-04 02:14 35.06645 66.10139 34821 ft 528 kts 127°
2026-05-04 02:14 35.02179 66.17287 34817 ft 528 kts 127°
2026-05-04 02:15 34.97696 66.24443 34818 ft 529 kts 127°
2026-05-04 02:15 34.93216 66.31552 34816 ft 529 kts 127°
2026-05-04 02:16 34.88709 66.38652 34818 ft 529 kts 127°
2026-05-04 02:16 34.84198 66.45737 34814 ft 529 kts 127°
2026-05-04 02:17 34.79681 66.52817 34816 ft 529 kts 127°
2026-05-04 02:17 34.75165 66.59883 34810 ft 529 kts 127°
2026-05-04 02:18 34.70669 66.66903 34801 ft 529 kts 127°
2026-05-04 02:18 34.66140 66.73959 34803 ft 529 kts 127°
2026-05-04 02:19 34.61604 66.81012 34808 ft 529 kts 127°
2026-05-04 02:19 34.57066 66.88049 34810 ft 529 kts 127°
2026-05-04 02:20 34.52529 66.95077 34807 ft 529 kts 127°
2026-05-04 02:20 34.47974 67.02127 34797 ft 529 kts 127°
2026-05-04 02:21 34.43418 67.09153 34788 ft 529 kts 127°
2026-05-04 02:21 34.38862 67.16160 34781 ft 529 kts 127°
2026-05-04 02:22 34.34291 67.23176 34777 ft 529 kts 127°
2026-05-04 02:22 34.29719 67.30180 34780 ft 529 kts 127°
2026-05-04 02:23 34.25147 67.37171 34768 ft 530 kts 127°
2026-05-04 02:23 34.20565 67.44161 34765 ft 530 kts 127°
2026-05-04 02:24 34.15975 67.51149 34761 ft 530 kts 128°
2026-05-04 02:24 34.11409 67.58086 34763 ft 531 kts 128°
2026-05-04 02:25 34.06807 67.65065 34753 ft 531 kts 128°
2026-05-04 02:25 34.02194 67.72041 34750 ft 531 kts 128°
2026-05-04 02:26 33.97561 67.79035 34736 ft 532 kts 128°
2026-05-04 02:26 33.92907 67.85982 34730 ft 532 kts 128°
2026-05-04 02:27 33.88239 67.92902 34718 ft 532 kts 129°
2026-05-04 02:27 33.83562 67.99822 34704 ft 533 kts 129°
2026-05-04 02:28 33.78861 68.06765 34690 ft 533 kts 129°
2026-05-04 02:28 33.74194 68.13646 34675 ft 534 kts 129°
2026-05-04 02:29 33.69482 68.20577 34661 ft 535 kts 129°
2026-05-04 02:29 33.64772 68.27494 34641 ft 535 kts 129°
2026-05-04 02:30 33.60052 68.34408 34620 ft 534 kts 129°
2026-05-04 02:30 33.55335 68.41304 34605 ft 534 kts 129°
2026-05-04 02:31 33.50535 68.48145 34589 ft 534 kts 130°
2026-05-04 02:31 33.45690 68.54911 34578 ft 534 kts 130°
2026-05-04 02:32 33.40853 68.61664 34579 ft 533 kts 130°
2026-05-04 02:32 33.36051 68.68366 34575 ft 533 kts 130°
2026-05-04 02:33 33.31222 68.75095 34576 ft 532 kts 130°
2026-05-04 02:33 33.26477 68.81899 34576 ft 532 kts 128°
2026-05-04 02:34 33.21967 68.88917 34578 ft 532 kts 127°
2026-05-04 02:34 33.17452 68.95952 34577 ft 533 kts 127°
2026-05-04 02:35 33.12915 69.02989 34582 ft 534 kts 127°
2026-05-04 02:35 33.08375 69.10010 34638 ft 534 kts 127°
2026-05-04 02:36 33.03826 69.17028 34735 ft 534 kts 127°
2026-05-04 02:36 32.99269 69.24047 34800 ft 534 kts 128°
2026-05-04 02:37 32.94719 69.31037 34868 ft 533 kts 128°
2026-05-04 02:37 32.90164 69.38021 34959 ft 532 kts 128°
2026-05-04 02:38 32.85652 69.44927 34931 ft 531 kts 128°
2026-05-04 02:38 32.81109 69.51862 34916 ft 530 kts 128°
2026-05-04 02:39 32.76564 69.58775 34920 ft 529 kts 128°
2026-05-04 02:39 32.72018 69.65671 34915 ft 529 kts 128°
2026-05-04 02:40 32.67474 69.72549 34911 ft 528 kts 128°
2026-05-04 02:40 32.62942 69.79399 34900 ft 526 kts 128°
2026-05-04 02:41 32.58443 69.86182 34898 ft 526 kts 128°
2026-05-04 02:41 32.53914 69.92997 34892 ft 525 kts 128°
2026-05-04 02:42 32.49390 69.99792 34879 ft 524 kts 128°
2026-05-04 02:42 32.44846 70.06601 34871 ft 524 kts 129°
2026-05-04 02:43 32.42336 70.09728 34831 ft 521 kts 143°
2026-05-04 02:43 32.39273 70.11956 34846 ft 516 kts 159°
2026-05-04 02:43 32.35857 70.13153 34846 ft 508 kts 175°
2026-05-04 02:43 32.32357 70.13274 34850 ft 500 kts 190°
2026-05-04 02:44 32.29008 70.12382 34852 ft 490 kts 205°
2026-05-04 02:44 32.25980 70.10605 34857 ft 483 kts 216°
2026-05-04 02:44 32.20269 70.06391 34856 ft 484 kts 217°
2026-05-04 02:45 32.14533 70.02186 34855 ft 487 kts 216°
2026-05-04 02:45 32.08724 69.98045 34850 ft 490 kts 212°
2026-05-04 02:46 32.05589 69.96532 34850 ft 497 kts 201°
2026-05-04 02:46 32.02192 69.95652 34857 ft 504 kts 192°
2026-05-04 02:46 31.95102 69.95909 34861 ft 516 kts 173°
2026-05-04 02:47 31.88055 69.97631 34864 ft 518 kts 171°
2026-05-04 02:47 31.81000 69.99407 34861 ft 518 kts 171°
2026-05-04 02:48 31.73933 70.01138 34855 ft 518 kts 172°
2026-05-04 02:48 31.66862 70.02844 34856 ft 519 kts 172°
2026-05-04 02:49 31.59779 70.04541 34863 ft 519 kts 172°
2026-05-04 02:49 31.52683 70.06237 34848 ft 520 kts 172°
2026-05-04 02:50 31.45623 70.07922 34861 ft 521 kts 172°
2026-05-04 02:50 31.38515 70.09616 34856 ft 521 kts 172°
2026-05-04 02:51 31.31403 70.11308 34852 ft 522 kts 172°
2026-05-04 02:51 31.24274 70.13001 34846 ft 522 kts 172°
2026-05-04 02:52 31.17147 70.14691 34844 ft 522 kts 172°
2026-05-04 02:52 31.10021 70.16378 34835 ft 522 kts 173°
2026-05-04 02:53 31.02882 70.18065 34831 ft 522 kts 173°
2026-05-04 02:53 30.95786 70.19739 34827 ft 523 kts 173°
2026-05-04 02:54 30.88598 70.21432 34821 ft 523 kts 173°
2026-05-04 02:54 30.81512 70.23099 34816 ft 523 kts 173°
2026-05-04 02:55 30.70800 70.25614 34805 ft 523 kts 173°
2026-05-04 02:56 30.63667 70.27287 34797 ft 523 kts 173°
2026-05-04 02:56 30.56536 70.28955 34792 ft 523 kts 173°
2026-05-04 02:57 30.49395 70.30624 34785 ft 523 kts 173°
2026-05-04 02:57 30.42309 70.32277 34779 ft 523 kts 173°
2026-05-04 02:58 30.35177 70.33939 34782 ft 525 kts 173°
2026-05-04 02:58 30.31581 70.34777 35021 ft 528 kts 173°
2026-05-04 02:58 30.29148 70.35346 35361 ft 526 kts 173°
2026-05-04 02:58 30.24410 70.36455 36072 ft 522 kts 174°
2026-05-04 02:59 30.20853 70.37282 36501 ft 522 kts 174°
2026-05-04 02:59 30.18484 70.37831 36737 ft 523 kts 174°
2026-05-04 02:59 30.14908 70.38655 37052 ft 524 kts 174°
2026-05-04 02:59 30.11317 70.39484 37376 ft 525 kts 174°
2026-05-04 03:00 30.07739 70.40310 37694 ft 525 kts 174°
2026-05-04 03:00 30.02984 70.41408 38128 ft 526 kts 174°
2026-05-04 03:00 30.00556 70.41969 38335 ft 526 kts 174°
2026-05-04 03:00 29.96959 70.42800 38593 ft 527 kts 175°
2026-05-04 03:01 29.93359 70.43630 38712 ft 527 kts 175°
2026-05-04 03:01 29.86165 70.45288 38710 ft 527 kts 175°
2026-05-04 03:02 29.78973 70.46942 38705 ft 532 kts 175°
2026-05-04 03:02 29.71709 70.48613 38705 ft 532 kts 175°
2026-05-04 03:03 29.64444 70.50283 38699 ft 533 kts 175°
2026-05-04 03:03 29.57148 70.51957 38694 ft 534 kts 175°
2026-05-04 03:04 29.49786 70.53638 38700 ft 543 kts 175°
2026-05-04 03:04 29.42353 70.55337 38699 ft 545 kts 174°
2026-05-04 03:05 29.34908 70.57040 38691 ft 545 kts 174°
2026-05-04 03:05 29.27486 70.58737 38679 ft 536 kts 175°
2026-05-04 03:06 29.20239 70.60392 38682 ft 529 kts 175°
2026-05-04 03:06 29.13064 70.62017 38678 ft 529 kts 175°
2026-05-04 03:07 29.05847 70.63651 38677 ft 529 kts 175°
2026-05-04 03:07 28.98622 70.65287 38672 ft 529 kts 175°
2026-05-04 03:08 28.91392 70.66922 38667 ft 529 kts 175°
2026-05-04 03:08 28.84150 70.68559 38674 ft 529 kts 175°
2026-05-04 03:09 28.76975 70.70178 38673 ft 529 kts 175°
2026-05-04 03:09 28.69763 70.71803 38672 ft 529 kts 175°
2026-05-04 03:10 28.62539 70.73428 38670 ft 529 kts 175°
2026-05-04 03:10 28.55313 70.75052 38669 ft 529 kts 175°
2026-05-04 03:11 28.48094 70.76672 38672 ft 529 kts 175°
2026-05-04 03:11 28.40878 70.78289 38674 ft 529 kts 175°
2026-05-04 03:12 28.33657 70.79905 38669 ft 529 kts 175°
2026-05-04 03:12 28.26437 70.81518 38669 ft 529 kts 175°
2026-05-04 03:13 28.19221 70.83128 38669 ft 528 kts 175°
2026-05-04 03:13 28.11994 70.84739 38671 ft 528 kts 175°
2026-05-04 03:14 28.04809 70.86338 38663 ft 528 kts 175°
2026-05-04 03:14 27.97600 70.87940 38663 ft 528 kts 175°
2026-05-04 03:15 27.90385 70.89541 38668 ft 528 kts 175°
2026-05-04 03:15 27.83149 70.91143 38662 ft 528 kts 175°
2026-05-04 03:16 27.75940 70.92738 38661 ft 528 kts 175°
2026-05-04 03:16 27.68736 70.94330 38658 ft 527 kts 175°
2026-05-04 03:17 27.61587 70.95908 38659 ft 527 kts 175°
2026-05-04 03:17 27.54379 70.97497 38651 ft 527 kts 175°
2026-05-04 03:18 27.47180 70.99081 38661 ft 527 kts 175°
2026-05-04 03:18 27.39953 71.00670 38653 ft 527 kts 175°
2026-05-04 03:19 27.32743 71.02253 38651 ft 527 kts 175°
2026-05-04 03:19 27.25537 71.03833 38654 ft 527 kts 175°
2026-05-04 03:20 27.18334 71.05410 38658 ft 527 kts 175°
2026-05-04 03:20 27.11153 71.06981 38659 ft 527 kts 175°
2026-05-04 03:21 27.03953 71.08553 38658 ft 527 kts 175°
2026-05-04 03:21 26.96749 71.10125 38657 ft 527 kts 175°
2026-05-04 03:22 26.89547 71.11694 38663 ft 527 kts 175°
2026-05-04 03:22 26.82336 71.13263 38668 ft 527 kts 175°
2026-05-04 03:23 26.75134 71.14828 38668 ft 527 kts 175°
2026-05-04 03:23 26.67939 71.16389 38667 ft 527 kts 175°
2026-05-04 03:24 26.60747 71.17948 38672 ft 526 kts 175°
2026-05-04 03:24 26.53594 71.19496 38671 ft 526 kts 175°
2026-05-04 03:25 26.46402 71.21050 38677 ft 526 kts 175°
2026-05-04 03:25 26.39187 71.22607 38676 ft 525 kts 175°
2026-05-04 03:26 26.32011 71.24154 38674 ft 525 kts 175°
2026-05-04 03:26 26.24833 71.25700 38679 ft 525 kts 175°
2026-05-04 03:27 26.17670 71.27241 38676 ft 524 kts 175°
2026-05-04 03:27 26.10502 71.28780 38674 ft 524 kts 175°
2026-05-04 03:28 26.03340 71.30316 38681 ft 524 kts 175°
2026-05-04 03:28 25.96182 71.31850 38681 ft 523 kts 175°
2026-05-04 03:29 25.89036 71.33379 38680 ft 522 kts 175°
2026-05-04 03:29 25.81951 71.34894 38682 ft 522 kts 175°
2026-05-04 03:30 25.74825 71.36415 38684 ft 521 kts 175°
2026-05-04 03:30 25.67699 71.37934 38683 ft 520 kts 175°
2026-05-04 03:31 25.60597 71.39446 38690 ft 518 kts 175°
2026-05-04 03:31 25.53519 71.40952 38689 ft 517 kts 175°
2026-05-04 03:32 25.46456 71.42452 38689 ft 516 kts 175°
2026-05-04 03:32 25.39412 71.43947 38696 ft 515 kts 175°
2026-05-04 03:33 25.32365 71.45440 38703 ft 513 kts 175°
2026-05-04 03:33 25.25411 71.46912 38703 ft 512 kts 175°
2026-05-04 03:34 25.18424 71.48389 38701 ft 510 kts 175°
2026-05-04 03:34 25.11455 71.49860 38707 ft 509 kts 174°
2026-05-04 03:35 25.04491 71.51329 38709 ft 508 kts 174°
2026-05-04 03:35 24.97538 71.52794 38712 ft 508 kts 174°
2026-05-04 03:36 24.90583 71.54256 38716 ft 511 kts 174°
2026-05-04 03:36 24.83553 71.55729 38717 ft 521 kts 174°
2026-05-04 03:37 24.76415 71.57230 38715 ft 522 kts 174°
2026-05-04 03:37 24.69287 71.58728 38721 ft 521 kts 174°
2026-05-04 03:38 24.62164 71.60222 38723 ft 521 kts 174°
2026-05-04 03:38 24.55034 71.61715 38723 ft 520 kts 174°
2026-05-04 03:39 24.47921 71.63201 38723 ft 520 kts 174°
2026-05-04 03:39 24.40810 71.64686 38722 ft 520 kts 174°
2026-05-04 03:40 24.33752 71.66158 38728 ft 520 kts 174°
2026-05-04 03:40 24.26639 71.67640 38729 ft 519 kts 174°
2026-05-04 03:41 24.19527 71.69120 38727 ft 519 kts 174°
2026-05-04 03:41 24.12425 71.70596 38728 ft 519 kts 174°
2026-05-04 03:42 24.05329 71.72070 38729 ft 519 kts 174°
2026-05-04 03:42 23.98242 71.73539 38731 ft 518 kts 174°
2026-05-04 03:43 23.91154 71.75007 38727 ft 518 kts 174°
2026-05-04 03:43 23.84122 71.76461 38736 ft 517 kts 175°
2026-05-04 03:44 23.77044 71.77924 38735 ft 517 kts 175°
2026-05-04 03:44 23.69928 71.79392 38744 ft 517 kts 175°
2026-05-04 03:45 23.62907 71.80840 38747 ft 516 kts 175°
2026-05-04 03:45 23.55846 71.82294 38745 ft 516 kts 175°
2026-05-04 03:46 23.48782 71.83747 38745 ft 516 kts 175°
2026-05-04 03:46 23.41733 71.85195 38751 ft 515 kts 175°
2026-05-04 03:47 23.34677 71.86644 38747 ft 515 kts 175°
2026-05-04 03:47 23.27634 71.88088 38747 ft 515 kts 175°
2026-05-04 03:48 23.20640 71.89520 38757 ft 514 kts 175°
2026-05-04 03:48 23.13601 71.90960 38757 ft 514 kts 175°
2026-05-04 03:49 23.07712 71.92164 38758 ft 514 kts 175°
2026-05-04 03:49 23.00685 71.93599 38759 ft 513 kts 175°
2026-05-04 03:50 22.93655 71.95033 38761 ft 513 kts 175°
2026-05-04 03:50 22.86626 71.96465 38763 ft 513 kts 175°
2026-05-04 03:51 22.79661 71.97883 38763 ft 513 kts 175°
2026-05-04 03:51 22.72640 71.99311 38760 ft 513 kts 175°
2026-05-04 03:52 22.65595 72.00742 38764 ft 513 kts 175°
2026-05-04 03:52 22.58579 72.02166 38765 ft 513 kts 175°
2026-05-04 03:53 22.51559 72.03588 38759 ft 513 kts 175°
2026-05-04 03:53 22.44541 72.05009 38768 ft 512 kts 175°
2026-05-04 03:54 22.37529 72.06427 38768 ft 512 kts 175°
2026-05-04 03:54 22.30572 72.07833 38772 ft 512 kts 175°
2026-05-04 03:55 22.23563 72.09247 38768 ft 512 kts 175°
2026-05-04 03:55 22.16565 72.10658 38772 ft 512 kts 175°
2026-05-04 03:56 22.09565 72.12068 38779 ft 512 kts 175°
2026-05-04 03:56 22.02557 72.13477 38788 ft 511 kts 175°
2026-05-04 03:57 21.95559 72.14883 38801 ft 511 kts 175°
2026-05-04 03:57 21.88563 72.16285 38809 ft 512 kts 175°
2026-05-04 03:58 21.78065 72.18386 38814 ft 511 kts 175°
2026-05-04 03:58 21.71100 72.20022 38812 ft 513 kts 171°
2026-05-04 03:59 21.64169 72.21845 38813 ft 512 kts 171°
2026-05-04 03:59 21.57237 72.23663 38806 ft 511 kts 171°
2026-05-04 04:00 21.50370 72.25457 38798 ft 511 kts 171°
2026-05-04 04:00 21.43462 72.27257 38799 ft 511 kts 171°
2026-05-04 04:01 21.36537 72.29059 38796 ft 510 kts 171°
2026-05-04 04:01 21.29628 72.30855 38800 ft 510 kts 171°
2026-05-04 04:02 21.22719 72.32649 38797 ft 511 kts 171°
2026-05-04 04:02 21.15808 72.34441 38799 ft 511 kts 171°
2026-05-04 04:03 21.08894 72.36232 38804 ft 511 kts 171°
2026-05-04 04:03 21.02032 72.38006 38803 ft 511 kts 171°
2026-05-04 04:04 20.95114 72.39791 38806 ft 511 kts 171°
2026-05-04 04:04 20.88196 72.41570 38808 ft 511 kts 171°
2026-05-04 04:05 20.81279 72.43305 38800 ft 509 kts 174°
2026-05-04 04:05 20.74290 72.44095 38807 ft 501 kts 184°
2026-05-04 04:06 20.67374 72.43523 38806 ft 494 kts 194°
2026-05-04 04:06 20.60774 72.41674 38811 ft 487 kts 205°
2026-05-04 04:07 20.54435 72.39106 38816 ft 487 kts 206°
2026-05-04 04:07 20.48140 72.36517 38581 ft 478 kts 206°
2026-05-04 04:08 20.45047 72.35252 38074 ft 474 kts 206°
2026-05-04 04:08 20.41964 72.33992 37365 ft 475 kts 205°
2026-05-04 04:08 20.38865 72.32725 36559 ft 479 kts 205°
2026-05-04 04:08 20.35778 72.31464 35762 ft 483 kts 205°
2026-05-04 04:09 20.32622 72.30178 34942 ft 488 kts 205°
2026-05-04 04:09 20.29433 72.28880 34146 ft 492 kts 205°
2026-05-04 04:09 20.26220 72.27575 33290 ft 496 kts 205°
2026-05-04 04:09 20.22980 72.26259 32435 ft 499 kts 204°
2026-05-04 04:10 20.19727 72.24939 31629 ft 501 kts 204°
2026-05-04 04:10 20.16464 72.23617 30820 ft 503 kts 204°
2026-05-04 04:10 20.13190 72.22290 30008 ft 504 kts 204°
2026-05-04 04:10 20.09896 72.20955 29040 ft 506 kts 204°
2026-05-04 04:11 20.06605 72.19623 28245 ft 504 kts 204°
2026-05-04 04:11 20.03351 72.18307 27775 ft 496 kts 204°
2026-05-04 04:11 20.00148 72.17013 27264 ft 489 kts 204°
2026-05-04 04:11 19.96980 72.15731 26712 ft 484 kts 204°
2026-05-04 04:12 19.93848 72.14463 26140 ft 480 kts 203°
2026-05-04 04:12 19.90746 72.13206 25569 ft 475 kts 203°
2026-05-04 04:12 19.87670 72.11961 25071 ft 470 kts 203°
2026-05-04 04:12 19.84625 72.10731 24856 ft 467 kts 203°
2026-05-04 04:13 19.81548 72.09609 24824 ft 471 kts 195°
2026-05-04 04:13 19.78265 72.09387 24606 ft 472 kts 176°
2026-05-04 04:13 19.75087 72.10268 24031 ft 474 kts 158°
2026-05-04 04:13 19.72318 72.12165 23377 ft 477 kts 140°
2026-05-04 04:14 19.69877 72.14537 22831 ft 472 kts 138°
2026-05-04 04:14 19.67475 72.16891 22199 ft 468 kts 139°
2026-05-04 04:14 19.65076 72.19220 21614 ft 464 kts 139°
2026-05-04 04:14 19.62694 72.21511 21061 ft 459 kts 139°
2026-05-04 04:15 19.60327 72.23773 20510 ft 455 kts 139°
2026-05-04 04:15 19.57980 72.26006 19965 ft 451 kts 139°
2026-05-04 04:15 19.55682 72.28189 19437 ft 447 kts 139°
2026-05-04 04:15 19.53377 72.30375 18896 ft 443 kts 139°
2026-05-04 04:16 19.51084 72.32547 18381 ft 439 kts 139°
2026-05-04 04:16 19.48812 72.34698 17825 ft 435 kts 139°
2026-05-04 04:16 19.46567 72.36823 17225 ft 432 kts 139°
2026-05-04 04:16 19.44332 72.38937 16657 ft 428 kts 139°
2026-05-04 04:17 19.42116 72.41034 16084 ft 425 kts 139°
2026-05-04 04:17 19.39914 72.43115 15540 ft 422 kts 139°
2026-05-04 04:17 19.37734 72.45175 15008 ft 418 kts 139°
2026-05-04 04:17 19.35566 72.47223 14461 ft 415 kts 139°
2026-05-04 04:18 19.33399 72.49268 13939 ft 413 kts 139°
2026-05-04 04:18 19.31267 72.51279 13417 ft 409 kts 139°
2026-05-04 04:18 19.29137 72.53287 12825 ft 406 kts 139°
2026-05-04 04:18 19.27029 72.55273 12227 ft 404 kts 139°
2026-05-04 04:19 19.24933 72.57249 11677 ft 401 kts 139°
2026-05-04 04:19 19.22950 72.59307 11154 ft 398 kts 128°
2026-05-04 04:19 19.21738 72.61899 10730 ft 391 kts 104°
2026-05-04 04:19 19.21452 72.64722 10352 ft 382 kts 89°
2026-05-04 04:20 19.21463 72.67479 9965 ft 376 kts 88°
2026-05-04 04:20 19.21487 72.70255 9565 ft 370 kts 88°
2026-05-04 04:20 19.21501 72.72960 9157 ft 365 kts 88°
2026-05-04 04:20 19.21502 72.75629 8762 ft 359 kts 89°
2026-05-04 04:21 19.21495 72.78259 8388 ft 354 kts 89°
2026-05-04 04:21 19.21483 72.80859 8024 ft 349 kts 89°
2026-05-04 04:21 19.21468 72.83407 7665 ft 344 kts 89°
2026-05-04 04:21 19.21452 72.85922 7331 ft 339 kts 89°
2026-05-04 04:22 19.21434 72.88406 6992 ft 334 kts 89°
2026-05-04 04:22 19.21417 72.90852 6681 ft 329 kts 89°
2026-05-04 04:22 19.21400 72.93263 6450 ft 323 kts 89°
2026-05-04 04:22 19.21381 72.95632 6098 ft 320 kts 89°
2026-05-04 04:23 19.21365 72.97976 5811 ft 315 kts 89°
2026-05-04 04:23 19.21348 73.00297 5499 ft 310 kts 89°
2026-05-04 04:23 19.21330 73.02566 5209 ft 306 kts 90°
2026-05-04 04:23 19.21313 73.04804 4932 ft 301 kts 90°
2026-05-04 04:24 19.21295 73.07029 4660 ft 297 kts 90°
2026-05-04 04:24 19.21126 73.09186 4339 ft 293 kts 108°
2026-05-04 04:24 19.20064 73.10954 4072 ft 283 kts 143°
2026-05-04 04:24 19.18311 73.11780 3801 ft 272 kts 177°
2026-05-04 04:25 19.16478 73.11524 3561 ft 262 kts 205°
2026-05-04 04:25 19.14919 73.10583 3311 ft 256 kts 213°
2026-05-04 04:25 19.13442 73.09590 3091 ft 254 kts 213°
2026-05-04 04:25 19.11933 73.08605 3034 ft 255 kts 212°
2026-05-04 04:26 19.10437 73.07596 2999 ft 250 kts 221°
2026-05-04 04:26 19.09469 73.06151 2982 ft 234 kts 248°
2026-05-04 04:26 19.09114 73.04530 3006 ft 220 kts 262°
2026-05-04 04:26 19.09052 73.02942 2993 ft 214 kts 268°
2026-05-04 04:27 19.09064 73.01411 2912 ft 197 kts 269°
2026-05-04 04:27 19.09067 73.00033 2754 ft 180 kts 267°
2026-05-04 04:27 19.09053 72.98745 2504 ft 168 kts 266°
2026-05-04 04:27 19.09035 72.97564 2283 ft 157 kts 265°
2026-05-04 04:28 19.09015 72.96430 2221 ft 154 kts 265°
2026-05-04 04:28 19.08996 72.95292 2189 ft 154 kts 265°
2026-05-04 04:28 19.08978 72.94151 2201 ft 154 kts 266°
2026-05-04 04:28 19.08962 72.93024 2160 ft 149 kts 265°
2026-05-04 04:29 19.08946 72.91927 1968 ft 150 kts 266°
2026-05-04 04:29 19.08930 72.90803 2012 ft 154 kts 265°
2026-05-04 04:29 19.08914 72.89673 1972 ft 152 kts 265°
2026-05-04 04:29 19.08898 72.88576 1732 ft 147 kts 266°
2026-05-04 04:30 19.08883 72.87464 1298 ft 151 kts 265°
2026-05-04 04:30 19.08867 72.86354 879 ft 151 kts 266°
2026-05-04 04:30 19.08863 72.85164 694 ft 180 kts 265°
2026-05-04 04:30 19.08854 72.83850 1467 ft 176 kts 267°
2026-05-04 04:31 19.08928 72.82509 2250 ft 198 kts 286°
2026-05-04 04:31 19.09799 72.81242 2795 ft 242 kts 324°
2026-05-04 04:31 19.11444 72.80670 2974 ft 248 kts
2026-05-04 04:31 19.13009 72.81231 2986 ft 236 kts 41°
2026-05-04 04:32 19.13907 72.82654 2997 ft 235 kts 68°
2026-05-04 04:32 19.14526 72.84263 2999 ft 235 kts 70°
2026-05-04 04:32 19.15129 72.85870 2990 ft 234 kts 70°
2026-05-04 04:32 19.15583 72.87521 2997 ft 233 kts 83°
2026-05-04 04:33 19.15734 72.89229 2996 ft 232 kts 88°
2026-05-04 04:33 19.15808 72.90932 2987 ft 232 kts 90°
2026-05-04 04:33 19.15872 72.92643 2982 ft 233 kts 90°
2026-05-04 04:33 19.15932 72.94356 2987 ft 233 kts 90°
2026-05-04 04:34 19.15984 72.96072 2989 ft 234 kts 90°
2026-05-04 04:34 19.16037 72.97793 2987 ft 235 kts 90°
2026-05-04 04:34 19.16091 72.99518 2983 ft 234 kts 90°
2026-05-04 04:34 19.16146 73.01232 2983 ft 234 kts 89°
2026-05-04 04:35 19.16189 73.02954 2983 ft 234 kts 90°
2026-05-04 04:35 19.16237 73.04680 2991 ft 235 kts 90°
2026-05-04 04:35 19.16292 73.06401 2987 ft 232 kts 89°
2026-05-04 04:35 19.16349 73.08114 2982 ft 232 kts 89°
2026-05-04 04:36 19.16387 73.09246 2992 ft 233 kts 90°
2026-05-04 04:36 19.16411 73.10960 2984 ft 232 kts 101°
2026-05-04 04:36 19.15817 73.12498 2995 ft 226 kts 134°
2026-05-04 04:36 19.14545 73.13408 2998 ft 221 kts 168°
2026-05-04 04:37 19.10438 73.12141 3008 ft 189 kts 210°
2026-05-04 04:37 19.09600 73.11239 2940 ft 163 kts 242°
2026-05-04 04:38 19.09290 73.10110 2959 ft 158 kts 259°
2026-05-04 04:38 19.09189 73.08957 2986 ft 157 kts 265°
2026-05-04 04:38 19.09160 73.07794 2993 ft 157 kts 267°
2026-05-04 04:38 19.09148 73.06639 2985 ft 156 kts 267°
2026-05-04 04:39 19.09136 73.05489 2982 ft 155 kts 268°
2026-05-04 04:39 19.09125 73.04350 2967 ft 154 kts 266°
2026-05-04 04:39 19.09110 73.03224 2746 ft 152 kts 266°
2026-05-04 04:39 19.09092 73.02102 2562 ft 152 kts 266°
2026-05-04 04:40 19.09076 73.00989 2393 ft 151 kts 266°
2026-05-04 04:40 19.09059 72.99873 2211 ft 151 kts 266°
2026-05-04 04:40 19.09042 72.98773 2022 ft 151 kts 267°
2026-05-04 04:40 19.09028 72.97666 1828 ft 150 kts 265°
2026-05-04 04:41 19.09012 72.96562 1633 ft 150 kts 265°
2026-05-04 04:41 19.08995 72.95464 1433 ft 149 kts 266°
2026-05-04 04:41 19.08980 72.94366 1219 ft 149 kts 266°
2026-05-04 04:41 19.08964 72.93264 1058 ft 150 kts 266°
2026-05-04 04:42 19.08950 72.92163 872 ft 148 kts 265°
2026-05-04 04:42 19.08934 72.91075 664 ft 147 kts 265°
2026-05-04 04:42 19.08916 72.89985 527 ft 149 kts 268°
2026-05-04 04:42 19.08908 72.88894 301 ft 146 kts 265°
2026-05-04 04:43 19.08887 72.87837 117 ft 143 kts 267°
2026-05-04 04:43 19.08870 72.86841 54 ft 111 kts 269°
2026-05-04 04:43 19.08863 72.86231 56 ft 61 kts 269°
2026-05-04 04:43 19.08905 72.85924 52 ft 22 kts 292°
2026-05-04 04:44 19.08953 72.85825 52 ft 0 kts 307°
2026-05-04 04:44 19.08955 72.85821 55 ft 3 kts 307°
2026-05-04 04:45 19.08984 72.85781 50 ft 11 kts 307°
2026-05-04 04:45 19.08991 72.85772 50 ft 0 kts 307°
2026-05-04 04:45 19.08991 72.85771 50 ft 0 kts 307°
2026-05-04 04:47 19.09033 72.85979 57 ft 15 kts 89°
2026-05-04 04:47 19.09034 72.86089 57 ft 15 kts 89°
2026-05-04 04:47 19.09035 72.86195 57 ft 14 kts 89°
2026-05-04 04:47 19.09035 72.86206 57 ft 1 kts 89°
2026-05-04 04:48 19.09036 72.86265 57 ft 12 kts 89°
2026-05-04 04:49 19.09039 72.86609 53 ft 20 kts 90°
2026-05-04 04:49 19.09038 72.86745 59 ft 13 kts 90°
2026-05-04 04:49 19.09037 72.86829 59 ft 11 kts 90°
2026-05-04 04:49 19.09036 72.86914 58 ft 11 kts 90°
2026-05-04 04:50 19.09035 72.86991 58 ft 10 kts 90°
2026-05-04 04:50 19.09035 72.87007 58 ft 0 kts 90°
2026-05-04 04:51 19.09035 72.87008 58 ft 0 kts 91°
2026-05-04 04:51 19.09035 72.87009 58 ft 0 kts 90°
2026-05-04 04:52 19.09035 72.87010 58 ft 0 kts 90°
2026-05-04 04:52 19.09036 72.87026 58 ft 0 kts 87°
2026-05-04 04:52 19.09036 72.87029 58 ft 1 kts 87°
2026-05-04 04:52 19.09037 72.87040 53 ft 2 kts 87°
2026-05-04 04:53 19.09038 72.87060 58 ft 3 kts 86°
2026-05-04 04:53 19.09040 72.87090 56 ft 5 kts 83°
2026-05-04 04:53 19.09048 72.87160 56 ft 11 kts 84°
2026-05-04 04:53 19.09058 72.87244 52 ft 11 kts 58°
2026-05-04 04:54 19.09130 72.87267 51 ft 12 kts 353°
2026-05-04 04:54 19.09215 72.87251 49 ft 11 kts 340°
2026-05-04 04:54 19.09266 72.87231 51 ft 6 kts 337°